Time,TemperatureF,DewpointF,PressureIn,WindDirection,WindDirectionDegrees,WindSpeedMPH,WindSpeedGustMPH,Humidity,HourlyPrecipIn,Conditions,Clouds,dailyrainin,SoftwareType,DateUTC
2013-07-29 00:01:00,65.0,64.0,30.08,WSW,247,4.0,4.0,99,0.06,,,0.01,Rainwise IP-100,2013-07-29 04:01:00,
2013-07-29 00:06:00,65.0,64.0,30.07,West,270,2.0,5.0,99,0.72,,,0.15,Rainwise IP-100,2013-07-29 04:06:00,
2013-07-29 00:11:00,65.0,64.0,30.07,NW,315,0.0,5.0,99,0.90,,,0.16,Rainwise IP-100,2013-07-29 04:11:00,
2013-07-29 00:16:00,65.0,64.0,30.08,SSE,157,1.0,3.0,99,0.24,,,0.16,Rainwise IP-100,2013-07-29 04:16:00,
2013-07-29 00:21:00,65.0,64.0,30.08,SSE,157,0.0,3.0,99,0.00,,,0.16,Rainwise IP-100,2013-07-29 04:21:00,
2013-07-29 00:26:00,65.0,64.0,30.07,SSE,157,0.0,0.0,99,0.06,,,0.17,Rainwise IP-100,2013-07-29 04:26:00,
2013-07-29 00:31:00,65.0,64.0,30.07,SSE,157,0.0,0.0,99,0.06,,,0.17,Rainwise IP-100,2013-07-29 04:31:00,
2013-07-29 00:36:00,65.0,64.0,30.07,SSE,157,0.0,0.0,99,0.00,,,0.17,Rainwise IP-100,2013-07-29 04:36:00,
2013-07-29 00:41:00,65.0,64.0,30.07,SSE,157,0.0,0.0,99,0.00,,,0.17,Rainwise IP-100,2013-07-29 04:41:00,
2013-07-29 00:46:00,65.0,64.0,30.08,SSE,157,0.0,0.0,99,0.00,,,0.17,Rainwise IP-100,2013-07-29 04:46:00,
2013-07-29 00:51:00,65.0,64.0,30.08,SSE,157,0.0,0.0,99,0.00,,,0.17,Rainwise IP-100,2013-07-29 04:51:00,
2013-07-29 00:56:00,65.0,64.0,30.08,SSE,157,0.0,0.0,99,0.00,,,0.17,Rainwise IP-100,2013-07-29 04:56:00,
2013-07-29 01:01:00,65.0,64.0,30.08,SSE,157,0.0,0.0,99,0.00,,,0.17,Rainwise IP-100,2013-07-29 05:01:00,
2013-07-29 01:06:00,65.0,64.0,30.07,SSE,157,0.0,0.0,99,0.00,,,0.17,Rainwise IP-100,2013-07-29 05:06:00,
2013-07-29 01:11:00,65.0,64.0,30.07,SSE,157,0.0,0.0,99,0.00,,,0.17,Rainwise IP-100,2013-07-29 05:11:00,
2013-07-29 01:16:00,65.0,64.0,30.07,SSE,157,0.0,0.0,99,0.00,,,0.17,Rainwise IP-100,2013-07-29 05:16:00,
2013-07-29 01:21:00,65.0,64.0,30.07,SSE,157,0.0,0.0,99,0.00,,,0.17,Rainwise IP-100,2013-07-29 05:21:00,
2013-07-29 01:26:00,65.0,64.0,30.07,SSE,157,0.0,0.0,99,0.00,,,0.17,Rainwise IP-100,2013-07-29 05:26:00,
2013-07-29 01:31:00,65.0,64.0,30.07,SSE,157,0.0,0.0,99,0.00,,,0.17,Rainwise IP-100,2013-07-29 05:31:00,
2013-07-29 01:36:00,65.0,64.0,30.07,SSE,157,0.0,0.0,99,0.00,,,0.17,Rainwise IP-100,2013-07-29 05:36:00,
2013-07-29 01:41:00,65.0,64.0,30.07,SSE,157,0.0,0.0,99,0.00,,,0.17,Rainwise IP-100,2013-07-29 05:41:00,
2013-07-29 01:46:00,65.0,64.0,30.07,SSE,157,0.0,0.0,99,0.00,,,0.17,Rainwise IP-100,2013-07-29 05:46:00,
2013-07-29 01:51:00,65.0,64.0,30.07,SSE,157,1.0,2.0,99,0.00,,,0.17,Rainwise IP-100,2013-07-29 05:51:00,
2013-07-29 01:56:00,65.0,64.0,30.07,East,90,3.0,5.0,99,0.00,,,0.17,Rainwise IP-100,2013-07-29 05:56:00,
2013-07-29 02:01:00,65.0,64.0,30.07,East,90,0.0,3.0,99,0.00,,,0.17,Rainwise IP-100,2013-07-29 06:01:00,
2013-07-29 02:06:00,65.0,64.0,30.07,East,90,0.0,0.0,99,0.00,,,0.17,Rainwise IP-100,2013-07-29 06:06:00,
2013-07-29 02:11:00,65.0,64.0,30.07,East,90,0.0,0.0,99,0.00,,,0.17,Rainwise IP-100,2013-07-29 06:11:00,
2013-07-29 02:16:00,65.0,64.0,30.07,South,180,4.0,6.0,99,0.00,,,0.17,Rainwise IP-100,2013-07-29 06:16:00,
2013-07-29 02:21:00,65.0,64.0,30.07,South,180,6.0,7.0,99,0.00,,,0.17,Rainwise IP-100,2013-07-29 06:21:00,
2013-07-29 02:26:00,65.0,64.0,30.06,WNW,292,5.0,6.0,99,0.00,,,0.17,Rainwise IP-100,2013-07-29 06:26:00,
2013-07-29 02:31:00,65.0,64.0,30.06,WNW,292,1.0,5.0,99,0.00,,,0.17,Rainwise IP-100,2013-07-29 06:31:00,
2013-07-29 02:36:00,65.0,64.0,30.06,WNW,292,1.0,3.0,99,0.00,,,0.17,Rainwise IP-100,2013-07-29 06:36:00,
2013-07-29 02:41:00,64.0,63.0,30.06,WNW,292,0.0,2.0,98,0.00,,,0.17,Rainwise IP-100,2013-07-29 06:41:00,
2013-07-29 02:46:00,64.0,63.0,30.06,WNW,292,0.0,0.0,98,0.00,,,0.17,Rainwise IP-100,2013-07-29 06:46:00,
2013-07-29 02:51:00,64.0,63.0,30.07,WNW,292,0.0,0.0,98,0.00,,,0.17,Rainwise IP-100,2013-07-29 06:51:00,
2013-07-29 02:56:00,65.0,64.0,30.07,SSW,202,3.0,5.0,99,0.00,,,0.17,Rainwise IP-100,2013-07-29 06:56:00,
2013-07-29 03:01:00,65.0,64.0,30.07,SSW,202,5.0,5.0,99,0.00,,,0.17,Rainwise IP-100,2013-07-29 07:01:00,
2013-07-29 03:06:00,65.0,64.0,30.07,South,180,2.0,6.0,99,0.00,,,0.17,Rainwise IP-100,2013-07-29 07:06:00,
2013-07-29 03:11:00,65.0,64.0,30.07,South,180,4.0,6.0,99,0.00,,,0.17,Rainwise IP-100,2013-07-29 07:11:00,
2013-07-29 03:16:00,65.0,64.0,30.07,South,180,6.0,6.0,99,0.00,,,0.17,Rainwise IP-100,2013-07-29 07:16:00,
2013-07-29 03:21:00,65.0,64.0,30.07,South,180,6.0,9.0,99,0.00,,,0.17,Rainwise IP-100,2013-07-29 07:21:00,
2013-07-29 03:26:00,65.0,64.0,30.07,South,180,7.0,9.0,99,0.00,,,0.17,Rainwise IP-100,2013-07-29 07:26:00,
2013-07-29 03:31:00,65.0,64.0,30.08,SSE,157,2.0,8.0,99,0.00,,,0.17,Rainwise IP-100,2013-07-29 07:31:00,
2013-07-29 03:36:00,65.0,64.0,30.08,SSE,157,5.0,6.0,99,0.00,,,0.17,Rainwise IP-100,2013-07-29 07:36:00,
2013-07-29 03:41:00,65.0,64.0,30.08,SE,135,7.0,7.0,99,0.00,,,0.17,Rainwise IP-100,2013-07-29 07:41:00,
2013-07-29 03:46:00,65.0,64.0,30.08,South,180,3.0,7.0,99,0.00,,,0.17,Rainwise IP-100,2013-07-29 07:46:00,
2013-07-29 03:51:00,65.0,64.0,30.08,SSE,157,5.0,6.0,99,0.00,,,0.17,Rainwise IP-100,2013-07-29 07:51:00,
2013-07-29 03:56:00,65.0,64.0,30.08,South,180,5.0,6.0,99,0.00,,,0.17,Rainwise IP-100,2013-07-29 07:56:00,
2013-07-29 04:01:00,65.0,64.0,30.08,South,180,2.0,6.0,99,0.00,,,0.17,Rainwise IP-100,2013-07-29 08:01:00,
2013-07-29 04:06:00,65.0,64.0,30.08,SSW,202,4.0,4.0,99,0.00,,,0.17,Rainwise IP-100,2013-07-29 08:06:00,
2013-07-29 04:11:00,65.0,64.0,30.08,SSE,157,7.0,7.0,99,0.00,,,0.17,Rainwise IP-100,2013-07-29 08:11:00,
2013-07-29 04:16:00,65.0,64.0,30.08,South,180,3.0,7.0,99,0.00,,,0.17,Rainwise IP-100,2013-07-29 08:16:00,
2013-07-29 04:21:00,65.0,64.0,30.08,SSE,157,7.0,9.0,99,0.00,,,0.17,Rainwise IP-100,2013-07-29 08:21:00,
2013-07-29 04:26:00,65.0,64.0,30.08,South,180,0.0,1.0,99,0.00,,,0.17,Rainwise IP-100,2013-07-29 08:26:00,
2013-07-29 04:31:00,65.0,64.0,30.08,South,180,6.0,6.0,99,0.00,,,0.17,Rainwise IP-100,2013-07-29 08:31:00,
2013-07-29 04:36:00,65.0,64.0,30.08,SSE,157,6.0,7.0,99,0.00,,,0.17,Rainwise IP-100,2013-07-29 08:36:00,
2013-07-29 04:41:00,65.0,64.0,30.08,South,180,6.0,9.0,99,0.00,,,0.17,Rainwise IP-100,2013-07-29 08:41:00,
2013-07-29 04:46:00,66.0,65.0,30.08,SE,135,5.0,9.0,99,0.00,,,0.17,Rainwise IP-100,2013-07-29 08:46:00,
2013-07-29 04:51:00,65.0,64.0,30.08,South,180,7.0,8.0,99,0.00,,,0.17,Rainwise IP-100,2013-07-29 08:51:00,
2013-07-29 04:56:00,65.0,64.0,30.08,SSW,202,4.0,8.0,99,0.00,,,0.17,Rainwise IP-100,2013-07-29 08:56:00,
2013-07-29 05:01:00,65.0,64.0,30.08,South,180,0.0,6.0,99,0.00,,,0.17,Rainwise IP-100,2013-07-29 09:01:00,
2013-07-29 05:06:00,65.0,64.0,30.09,East,90,4.0,5.0,99,0.00,,,0.17,Rainwise IP-100,2013-07-29 09:06:00,
2013-07-29 05:11:00,64.0,63.0,30.09,ENE,67,2.0,6.0,98,0.00,,,0.17,Rainwise IP-100,2013-07-29 09:11:00,
2013-07-29 05:16:00,64.0,63.0,30.09,ENE,67,0.0,3.0,98,0.00,,,0.17,Rainwise IP-100,2013-07-29 09:16:00,
2013-07-29 05:21:00,64.0,63.0,30.09,ENE,67,3.0,3.0,98,0.00,,,0.17,Rainwise IP-100,2013-07-29 09:21:00,
2013-07-29 05:26:00,64.0,63.0,30.09,ENE,67,2.0,3.0,98,0.00,,,0.17,Rainwise IP-100,2013-07-29 09:26:00,
2013-07-29 05:31:00,64.0,63.0,30.09,ENE,67,2.0,3.0,98,0.00,,,0.17,Rainwise IP-100,2013-07-29 09:31:00,
2013-07-29 05:36:00,64.0,63.0,30.09,ENE,67,0.0,3.0,98,0.00,,,0.17,Rainwise IP-100,2013-07-29 09:36:00,
2013-07-29 05:41:00,64.0,63.0,30.09,ENE,67,0.0,2.0,98,0.00,,,0.17,Rainwise IP-100,2013-07-29 09:41:00,
2013-07-29 05:46:00,64.0,63.0,30.09,ENE,67,0.0,0.0,98,0.00,,,0.17,Rainwise IP-100,2013-07-29 09:46:00,
2013-07-29 05:51:00,64.0,63.0,30.10,ENE,67,0.0,2.0,98,0.00,,,0.17,Rainwise IP-100,2013-07-29 09:51:00,
2013-07-29 05:56:00,64.0,63.0,30.10,ENE,67,0.0,1.0,98,0.00,,,0.17,Rainwise IP-100,2013-07-29 09:56:00,
2013-07-29 06:01:00,64.0,63.0,30.10,ENE,67,0.0,2.0,98,0.00,,,0.17,Rainwise IP-100,2013-07-29 10:01:00,
2013-07-29 06:06:00,64.0,63.0,30.10,ENE,67,2.0,2.0,98,0.00,,,0.17,Rainwise IP-100,2013-07-29 10:06:00,
2013-07-29 06:11:00,63.0,62.0,30.10,ENE,67,1.0,5.0,98,0.00,,,0.17,Rainwise IP-100,2013-07-29 10:11:00,
2013-07-29 06:16:00,63.0,62.0,30.11,ENE,67,2.0,4.0,98,0.00,,,0.17,Rainwise IP-100,2013-07-29 10:16:00,
2013-07-29 06:21:00,63.0,62.0,30.11,ENE,67,0.0,3.0,98,0.00,,,0.17,Rainwise IP-100,2013-07-29 10:21:00,
2013-07-29 06:26:00,63.0,62.0,30.11,North,360,5.0,6.0,98,0.00,,,0.17,Rainwise IP-100,2013-07-29 10:26:00,
2013-07-29 06:31:00,63.0,62.0,30.11,ENE,67,0.0,5.0,98,0.00,,,0.17,Rainwise IP-100,2013-07-29 10:31:00,
2013-07-29 06:36:00,63.0,62.0,30.11,North,360,5.0,5.0,98,0.00,,,0.17,Rainwise IP-100,2013-07-29 10:36:00,
2013-07-29 06:41:00,63.0,62.0,30.11,NE,45,1.0,5.0,98,0.00,,,0.17,Rainwise IP-100,2013-07-29 10:41:00,
2013-07-29 06:46:00,63.0,62.0,30.11,NE,45,4.0,5.0,98,0.00,,,0.17,Rainwise IP-100,2013-07-29 10:46:00,
2013-07-29 06:51:00,63.0,62.0,30.11,NE,45,1.0,4.0,98,0.00,,,0.17,Rainwise IP-100,2013-07-29 10:51:00,
2013-07-29 06:56:00,63.0,62.0,30.12,NE,45,0.0,3.0,98,0.00,,,0.17,Rainwise IP-100,2013-07-29 10:56:00,
2013-07-29 07:01:00,63.0,62.0,30.12,ENE,67,0.0,4.0,98,0.00,,,0.17,Rainwise IP-100,2013-07-29 11:01:00,
2013-07-29 07:06:00,63.0,62.0,30.12,North,360,3.0,6.0,98,0.00,,,0.17,Rainwise IP-100,2013-07-29 11:06:00,
2013-07-29 07:11:00,63.0,62.0,30.12,North,360,4.0,6.0,98,0.00,,,0.17,Rainwise IP-100,2013-07-29 11:11:00,
2013-07-29 07:16:00,63.0,62.0,30.12,NW,315,2.0,6.0,98,0.00,,,0.17,Rainwise IP-100,2013-07-29 11:16:00,
2013-07-29 07:21:00,63.0,62.0,30.12,NW,315,0.0,3.0,98,0.00,,,0.17,Rainwise IP-100,2013-07-29 11:21:00,
2013-07-29 07:26:00,64.0,63.0,30.12,NNW,337,0.0,3.0,98,0.00,,,0.17,Rainwise IP-100,2013-07-29 11:26:00,
2013-07-29 07:31:00,64.0,63.0,30.12,NNE,22,2.0,3.0,98,0.00,,,0.17,Rainwise IP-100,2013-07-29 11:31:00,
2013-07-29 07:36:00,65.0,64.0,30.12,NNE,22,1.0,2.0,99,0.00,,,0.17,Rainwise IP-100,2013-07-29 11:36:00,
2013-07-29 07:41:00,65.0,64.0,30.12,NNE,22,0.0,5.0,99,0.00,,,0.17,Rainwise IP-100,2013-07-29 11:41:00,
2013-07-29 07:46:00,65.0,64.0,30.12,NNE,22,0.0,3.0,99,0.00,,,0.17,Rainwise IP-100,2013-07-29 11:46:00,
2013-07-29 07:51:00,65.0,64.0,30.12,NNE,22,1.0,3.0,99,0.00,,,0.17,Rainwise IP-100,2013-07-29 11:51:00,
2013-07-29 07:56:00,65.0,64.0,30.12,NE,45,1.0,4.0,99,0.00,,,0.17,Rainwise IP-100,2013-07-29 11:56:00,
2013-07-29 08:01:00,65.0,64.0,30.12,NE,45,4.0,4.0,99,0.00,,,0.17,Rainwise IP-100,2013-07-29 12:01:00,
2013-07-29 08:06:00,65.0,64.0,30.12,NE,45,3.0,5.0,99,0.00,,,0.17,Rainwise IP-100,2013-07-29 12:06:00,
2013-07-29 08:11:00,66.0,65.0,30.12,NE,45,4.0,4.0,99,0.00,,,0.17,Rainwise IP-100,2013-07-29 12:11:00,
2013-07-29 08:16:00,67.0,66.0,30.12,NE,45,1.0,4.0,99,0.00,,,0.17,Rainwise IP-100,2013-07-29 12:16:00,
2013-07-29 08:21:00,68.0,67.0,30.12,NE,45,3.0,5.0,99,0.00,,,0.17,Rainwise IP-100,2013-07-29 12:21:00,
2013-07-29 08:26:00,68.0,67.0,30.12,NE,45,0.0,4.0,99,0.00,,,0.17,Rainwise IP-100,2013-07-29 12:26:00,
2013-07-29 08:31:00,68.0,66.0,30.11,NE,45,1.0,4.0,94,0.00,,,0.17,Rainwise IP-100,2013-07-29 12:31:00,
2013-07-29 08:36:00,69.0,66.0,30.11,NNE,22,0.0,4.0,91,0.00,,,0.17,Rainwise IP-100,2013-07-29 12:36:00,
2013-07-29 08:41:00,69.0,66.0,30.11,NE,45,0.0,3.0,93,0.00,,,0.17,Rainwise IP-100,2013-07-29 12:41:00,
2013-07-29 08:46:00,70.0,66.0,30.11,NNW,337,1.0,4.0,87,0.00,,,0.17,Rainwise IP-100,2013-07-29 12:46:00,
2013-07-29 08:51:00,68.0,64.0,30.11,NNW,337,3.0,6.0,88,0.00,,,0.17,Rainwise IP-100,2013-07-29 12:51:00,
2013-07-29 08:56:00,68.0,65.0,30.12,NW,315,6.0,6.0,90,0.00,,,0.17,Rainwise IP-100,2013-07-29 12:56:00,
2013-07-29 09:01:00,67.0,65.0,30.12,NNW,337,1.0,6.0,92,0.00,,,0.17,Rainwise IP-100,2013-07-29 13:01:00,
2013-07-29 09:06:00,67.0,65.0,30.12,NNW,337,0.0,3.0,92,0.00,,,0.17,Rainwise IP-100,2013-07-29 13:06:00,
2013-07-29 09:11:00,67.0,65.0,30.12,NE,45,0.0,4.0,92,0.00,,,0.17,Rainwise IP-100,2013-07-29 13:11:00,
2013-07-29 09:16:00,68.0,65.0,30.12,NE,45,0.0,2.0,92,0.00,,,0.17,Rainwise IP-100,2013-07-29 13:16:00,
2013-07-29 09:21:00,69.0,66.0,30.12,NE,45,1.0,2.0,91,0.00,,,0.17,Rainwise IP-100,2013-07-29 13:21:00,
2013-07-29 09:26:00,70.0,66.0,30.12,NE,45,1.0,4.0,86,0.00,,,0.17,Rainwise IP-100,2013-07-29 13:26:00,
2013-07-29 09:31:00,71.0,65.0,30.12,NE,45,3.0,3.0,81,0.00,,,0.17,Rainwise IP-100,2013-07-29 13:31:00,
2013-07-29 09:36:00,72.0,65.0,30.11,NE,45,0.0,4.0,79,0.00,,,0.17,Rainwise IP-100,2013-07-29 13:36:00,
2013-07-29 09:41:00,72.0,65.0,30.11,North,360,2.0,6.0,79,0.00,,,0.17,Rainwise IP-100,2013-07-29 13:41:00,
2013-07-29 09:46:00,73.0,65.0,30.11,North,360,0.0,4.0,77,0.00,,,0.17,Rainwise IP-100,2013-07-29 13:46:00,
2013-07-29 09:51:00,74.0,65.0,30.11,West,270,1.0,4.0,73,0.00,,,0.17,Rainwise IP-100,2013-07-29 13:51:00,
2013-07-29 09:56:00,73.0,63.0,30.11,East,90,4.0,4.0,72,0.00,,,0.17,Rainwise IP-100,2013-07-29 13:56:00,
2013-07-29 10:01:00,71.0,63.0,30.11,East,90,6.0,6.0,77,0.00,,,0.17,Rainwise IP-100,2013-07-29 14:01:00,
2013-07-29 10:06:00,73.0,65.0,30.11,South,180,0.0,6.0,75,0.00,,,0.17,Rainwise IP-100,2013-07-29 14:06:00,
2013-07-29 10:11:00,72.0,65.0,30.11,North,360,5.0,7.0,78,0.00,,,0.17,Rainwise IP-100,2013-07-29 14:11:00,
2013-07-29 10:16:00,73.0,63.0,30.11,North,360,4.0,6.0,72,0.00,,,0.17,Rainwise IP-100,2013-07-29 14:16:00,
2013-07-29 10:21:00,71.0,65.0,30.11,North,360,5.0,9.0,83,0.00,,,0.17,Rainwise IP-100,2013-07-29 14:21:00,
2013-07-29 10:26:00,71.0,66.0,30.12,North,360,4.0,0.0,85,0.00,,,0.17,Rainwise IP-100,2013-07-29 14:26:00,
2013-07-29 10:31:00,70.0,64.0,30.12,NW,315,4.0,6.0,83,0.00,,,0.17,Rainwise IP-100,2013-07-29 14:31:00,
2013-07-29 10:36:00,70.0,64.0,30.12,East,90,1.0,4.0,82,0.00,,,0.17,Rainwise IP-100,2013-07-29 14:36:00,
2013-07-29 10:41:00,71.0,66.0,30.12,East,90,0.0,3.0,84,0.00,,,0.17,Rainwise IP-100,2013-07-29 14:41:00,
2013-07-29 10:46:00,71.0,63.0,30.12,East,90,4.0,6.0,77,0.00,,,0.17,Rainwise IP-100,2013-07-29 14:46:00,
2013-07-29 10:51:00,71.0,62.0,30.12,ESE,112,0.0,6.0,75,0.00,,,0.17,Rainwise IP-100,2013-07-29 14:51:00,
2013-07-29 10:56:00,72.0,64.0,30.12,SE,135,5.0,5.0,77,0.00,,,0.17,Rainwise IP-100,2013-07-29 14:56:00,
2013-07-29 11:01:00,74.0,64.0,30.11,East,90,0.0,5.0,72,0.00,,,0.17,Rainwise IP-100,2013-07-29 15:01:00,
2013-07-29 11:06:00,74.0,65.0,30.11,SE,135,7.0,7.0,73,0.00,,,0.17,Rainwise IP-100,2013-07-29 15:06:00,
2013-07-29 11:11:00,72.0,62.0,30.11,South,180,3.0,8.0,71,0.00,,,0.17,Rainwise IP-100,2013-07-29 15:11:00,
2013-07-29 11:16:00,73.0,62.0,30.11,SSE,157,7.0,8.0,70,0.00,,,0.17,Rainwise IP-100,2013-07-29 15:16:00,
2013-07-29 11:21:00,73.0,63.0,30.11,NW,315,7.0,7.0,72,0.00,,,0.17,Rainwise IP-100,2013-07-29 15:21:00,
2013-07-29 11:26:00,72.0,63.0,30.11,WNW,292,9.0,0.0,74,0.00,,,0.17,Rainwise IP-100,2013-07-29 15:26:00,
2013-07-29 11:31:00,72.0,63.0,30.11,North,360,6.0,9.0,73,0.00,,,0.17,Rainwise IP-100,2013-07-29 15:31:00,
2013-07-29 11:36:00,73.0,62.0,30.11,West,270,3.0,9.0,69,0.00,,,0.17,Rainwise IP-100,2013-07-29 15:36:00,
2013-07-29 11:41:00,73.0,60.0,30.11,SW,225,2.0,9.0,64,0.00,,,0.17,Rainwise IP-100,2013-07-29 15:41:00,
2013-07-29 11:46:00,74.0,59.0,30.09,SW,225,9.0,9.0,59,0.00,,,0.17,Rainwise IP-100,2013-07-29 15:46:00,
2013-07-29 11:51:00,73.0,57.0,30.09,NW,315,0.0,5.0,59,0.00,,,0.17,Rainwise IP-100,2013-07-29 15:51:00,
2013-07-29 11:56:00,73.0,57.0,30.09,WSW,247,5.0,5.0,57,0.00,,,0.17,Rainwise IP-100,2013-07-29 15:56:00,
2013-07-29 12:01:00,74.0,60.0,30.09,West,270,8.0,8.0,62,0.00,,,0.17,Rainwise IP-100,2013-07-29 16:01:00,
2013-07-29 12:06:00,74.0,59.0,30.09,NW,315,6.0,0.0,60,0.00,,,0.17,Rainwise IP-100,2013-07-29 16:06:00,
2013-07-29 12:11:00,74.0,59.0,30.09,West,270,4.0,4.0,59,0.00,,,0.17,Rainwise IP-100,2013-07-29 16:11:00,
2013-07-29 12:16:00,74.0,57.0,30.09,West,270,9.0,9.0,57,0.00,,,0.17,Rainwise IP-100,2013-07-29 16:16:00,
2013-07-29 12:21:00,74.0,59.0,30.09,WSW,247,6.0,6.0,59,0.00,,,0.17,Rainwise IP-100,2013-07-29 16:21:00,
2013-07-29 12:26:00,74.0,56.0,30.09,SW,225,9.0,9.0,54,0.00,,,0.17,Rainwise IP-100,2013-07-29 16:26:00,
2013-07-29 12:31:00,74.0,57.0,30.09,WNW,292,0.0,0.0,56,0.00,,,0.17,Rainwise IP-100,2013-07-29 16:31:00,
2013-07-29 12:36:00,74.0,56.0,30.09,WSW,247,9.0,9.0,54,0.00,,,0.17,Rainwise IP-100,2013-07-29 16:36:00,
2013-07-29 12:41:00,74.0,56.0,30.09,NW,315,9.0,9.0,54,0.00,,,0.17,Rainwise IP-100,2013-07-29 16:41:00,
2013-07-29 12:46:00,75.0,55.0,30.09,WSW,247,6.0,6.0,50,0.00,,,0.17,Rainwise IP-100,2013-07-29 16:46:00,
2013-07-29 12:51:00,74.0,57.0,30.09,WNW,292,0.0,1.0,56,0.00,,,0.17,Rainwise IP-100,2013-07-29 16:51:00,
2013-07-29 12:56:00,74.0,58.0,30.09,SW,225,5.0,5.0,58,0.00,,,0.17,Rainwise IP-100,2013-07-29 16:56:00,
2013-07-29 13:01:00,75.0,56.0,30.09,SW,225,9.0,9.0,52,0.00,,,0.17,Rainwise IP-100,2013-07-29 17:01:00,
2013-07-29 13:06:00,75.0,54.0,30.09,WSW,247,7.0,7.0,49,0.00,,,0.17,Rainwise IP-100,2013-07-29 17:06:00,
2013-07-29 13:11:00,75.0,57.0,30.09,SW,225,2.0,0.0,53,0.00,,,0.17,Rainwise IP-100,2013-07-29 17:11:00,
2013-07-29 13:16:00,75.0,57.0,30.09,South,180,9.0,9.0,53,0.00,,,0.17,Rainwise IP-100,2013-07-29 17:16:00,
2013-07-29 13:21:00,75.0,57.0,30.09,WNW,292,7.0,7.0,53,0.00,,,0.17,Rainwise IP-100,2013-07-29 17:21:00,
2013-07-29 13:26:00,75.0,55.0,30.09,South,180,0.0,2.0,50,0.00,,,0.17,Rainwise IP-100,2013-07-29 17:26:00,
2013-07-29 13:31:00,75.0,57.0,30.09,WSW,247,1.0,5.0,54,0.00,,,0.17,Rainwise IP-100,2013-07-29 17:31:00,
2013-07-29 13:36:00,75.0,56.0,30.09,NW,315,6.0,6.0,51,0.00,,,0.17,Rainwise IP-100,2013-07-29 17:36:00,
2013-07-29 13:41:00,74.0,54.0,30.09,West,270,7.0,7.0,51,0.00,,,0.17,Rainwise IP-100,2013-07-29 17:41:00,
2013-07-29 13:46:00,74.0,54.0,30.09,SW,225,0.0,2.0,51,0.00,,,0.17,Rainwise IP-100,2013-07-29 17:46:00,
2013-07-29 13:51:00,73.0,54.0,30.09,South,180,0.0,2.0,53,0.00,,,0.17,Rainwise IP-100,2013-07-29 17:51:00,
2013-07-29 13:56:00,74.0,57.0,30.09,SW,225,3.0,3.0,55,0.00,,,0.17,Rainwise IP-100,2013-07-29 17:56:00,
2013-07-29 14:01:00,75.0,54.0,30.09,SSW,202,9.0,9.0,49,0.00,,,0.17,Rainwise IP-100,2013-07-29 18:01:00,
2013-07-29 14:06:00,76.0,56.0,30.09,SSW,202,0.0,2.0,50,0.00,,,0.17,Rainwise IP-100,2013-07-29 18:06:00,
2013-07-29 14:11:00,75.0,56.0,30.09,WSW,247,4.0,5.0,51,0.00,,,0.17,Rainwise IP-100,2013-07-29 18:11:00,
2013-07-29 14:16:00,75.0,55.0,30.09,SW,225,7.0,7.0,50,0.00,,,0.17,Rainwise IP-100,2013-07-29 18:16:00,
2013-07-29 14:21:00,75.0,55.0,30.09,WSW,247,6.0,6.0,50,0.00,,,0.17,Rainwise IP-100,2013-07-29 18:21:00,
2013-07-29 14:26:00,74.0,56.0,30.10,West,270,8.0,8.0,54,0.00,,,0.17,Rainwise IP-100,2013-07-29 18:26:00,
2013-07-29 14:31:00,75.0,57.0,30.10,West,270,3.0,0.0,54,0.00,,,0.17,Rainwise IP-100,2013-07-29 18:31:00,
2013-07-29 14:36:00,74.0,57.0,30.09,West,270,6.0,6.0,56,0.00,,,0.17,Rainwise IP-100,2013-07-29 18:36:00,
2013-07-29 14:41:00,75.0,59.0,30.09,NW,315,6.0,0.0,57,0.00,,,0.17,Rainwise IP-100,2013-07-29 18:41:00,
2013-07-29 14:46:00,75.0,56.0,30.09,NW,315,0.0,6.0,52,0.00,,,0.17,Rainwise IP-100,2013-07-29 18:46:00,
2013-07-29 14:51:00,74.0,56.0,30.09,WSW,247,7.0,7.0,54,0.00,,,0.17,Rainwise IP-100,2013-07-29 18:51:00,
2013-07-29 14:56:00,75.0,56.0,30.09,WSW,247,7.0,7.0,52,0.00,,,0.17,Rainwise IP-100,2013-07-29 18:56:00,
2013-07-29 15:01:00,74.0,55.0,30.09,West,270,9.0,9.0,52,0.00,,,0.17,Rainwise IP-100,2013-07-29 19:01:00,
2013-07-29 15:06:00,75.0,57.0,30.09,WSW,247,7.0,7.0,53,0.00,,,0.17,Rainwise IP-100,2013-07-29 19:06:00,
2013-07-29 15:11:00,75.0,56.0,30.09,West,270,7.0,7.0,52,0.00,,,0.17,Rainwise IP-100,2013-07-29 19:11:00,
2013-07-29 15:16:00,75.0,55.0,30.08,SW,225,2.0,5.0,50,0.00,,,0.17,Rainwise IP-100,2013-07-29 19:16:00,
2013-07-29 15:21:00,75.0,54.0,30.08,SW,225,9.0,9.0,49,0.00,,,0.17,Rainwise IP-100,2013-07-29 19:21:00,
2013-07-29 15:26:00,75.0,57.0,30.08,WSW,247,0.0,6.0,54,0.00,,,0.17,Rainwise IP-100,2013-07-29 19:26:00,
2013-07-29 15:31:00,75.0,56.0,30.08,WSW,247,0.0,5.0,52,0.00,,,0.17,Rainwise IP-100,2013-07-29 19:31:00,
2013-07-29 15:36:00,75.0,57.0,30.08,NW,315,0.0,3.0,54,0.00,,,0.17,Rainwise IP-100,2013-07-29 19:36:00,
2013-07-29 15:41:00,75.0,56.0,30.08,West,270,7.0,7.0,52,0.00,,,0.17,Rainwise IP-100,2013-07-29 19:41:00,
2013-07-29 15:46:00,75.0,56.0,30.08,SW,225,0.0,3.0,51,0.00,,,0.17,Rainwise IP-100,2013-07-29 19:46:00,
2013-07-29 15:51:00,75.0,56.0,30.08,SW,225,3.0,6.0,51,0.00,,,0.17,Rainwise IP-100,2013-07-29 19:51:00,
2013-07-29 15:56:00,75.0,56.0,30.08,SW,225,8.0,8.0,52,0.00,,,0.17,Rainwise IP-100,2013-07-29 19:56:00,
2013-07-29 16:01:00,75.0,54.0,30.08,WSW,247,7.0,7.0,49,0.00,,,0.17,Rainwise IP-100,2013-07-29 20:01:00,
2013-07-29 16:06:00,75.0,54.0,30.08,SW,225,5.0,7.0,48,0.00,,,0.17,Rainwise IP-100,2013-07-29 20:06:00,
2013-07-29 16:11:00,75.0,53.0,30.08,WSW,247,2.0,3.0,46,0.00,,,0.17,Rainwise IP-100,2013-07-29 20:11:00,
2013-07-29 16:16:00,75.0,54.0,30.08,SSW,202,8.0,8.0,48,0.00,,,0.17,Rainwise IP-100,2013-07-29 20:16:00,
2013-07-29 16:21:00,75.0,54.0,30.08,SSW,202,3.0,3.0,48,0.00,,,0.17,Rainwise IP-100,2013-07-29 20:21:00,
2013-07-29 16:26:00,75.0,53.0,30.08,SSW,202,7.0,9.0,47,0.00,,,0.17,Rainwise IP-100,2013-07-29 20:26:00,
2013-07-29 16:31:00,76.0,53.0,30.08,WSW,247,0.0,4.0,45,0.00,,,0.17,Rainwise IP-100,2013-07-29 20:31:00,
2013-07-29 16:36:00,75.0,53.0,30.08,West,270,0.0,6.0,45,0.00,,,0.17,Rainwise IP-100,2013-07-29 20:36:00,
2013-07-29 16:41:00,75.0,52.0,30.08,SSW,202,9.0,9.0,44,0.00,,,0.17,Rainwise IP-100,2013-07-29 20:41:00,
2013-07-29 16:46:00,75.0,53.0,30.08,West,270,7.0,0.0,45,0.00,,,0.17,Rainwise IP-100,2013-07-29 20:46:00,
2013-07-29 16:51:00,76.0,51.0,30.08,WNW,292,0.0,5.0,42,0.00,,,0.17,Rainwise IP-100,2013-07-29 20:51:00,
2013-07-29 16:56:00,75.0,50.0,30.08,NW,315,5.0,5.0,41,0.00,,,0.17,Rainwise IP-100,2013-07-29 20:56:00,
2013-07-29 17:01:00,75.0,50.0,30.09,WSW,247,0.0,3.0,42,0.00,,,0.17,Rainwise IP-100,2013-07-29 21:01:00,
2013-07-29 17:06:00,76.0,53.0,30.09,WSW,247,5.0,5.0,44,0.00,,,0.17,Rainwise IP-100,2013-07-29 21:06:00,
2013-07-29 17:11:00,76.0,52.0,30.08,SW,225,6.0,6.0,43,0.00,,,0.17,Rainwise IP-100,2013-07-29 21:11:00,
2013-07-29 17:16:00,76.0,51.0,30.08,WNW,292,0.0,0.0,42,0.00,,,0.17,Rainwise IP-100,2013-07-29 21:16:00,
2013-07-29 17:21:00,75.0,51.0,30.09,WNW,292,0.0,6.0,43,0.00,,,0.17,Rainwise IP-100,2013-07-29 21:21:00,
2013-07-29 17:26:00,75.0,52.0,30.09,SW,225,4.0,5.0,44,0.00,,,0.17,Rainwise IP-100,2013-07-29 21:26:00,
2013-07-29 17:31:00,74.0,53.0,30.08,WNW,292,6.0,6.0,48,0.00,,,0.17,Rainwise IP-100,2013-07-29 21:31:00,
2013-07-29 17:36:00,75.0,50.0,30.08,West,270,5.0,5.0,42,0.00,,,0.17,Rainwise IP-100,2013-07-29 21:36:00,
2013-07-29 17:41:00,75.0,52.0,30.08,SW,225,0.0,6.0,44,0.00,,,0.17,Rainwise IP-100,2013-07-29 21:41:00,
2013-07-29 17:46:00,75.0,51.0,30.08,West,270,0.0,3.0,43,0.00,,,0.17,Rainwise IP-100,2013-07-29 21:46:00,
2013-07-29 17:51:00,75.0,53.0,30.09,West,270,3.0,3.0,45,0.00,,,0.17,Rainwise IP-100,2013-07-29 21:51:00,
2013-07-29 17:56:00,75.0,53.0,30.09,NNW,337,8.0,0.0,45,0.00,,,0.17,Rainwise IP-100,2013-07-29 21:56:00,
2013-07-29 18:01:00,74.0,51.0,30.08,NW,315,0.0,3.0,45,0.00,,,0.17,Rainwise IP-100,2013-07-29 22:01:00,
2013-07-29 18:06:00,74.0,52.0,30.08,WNW,292,9.0,9.0,46,0.00,,,0.17,Rainwise IP-100,2013-07-29 22:06:00,
2013-07-29 18:11:00,74.0,53.0,30.09,WSW,247,6.0,6.0,48,0.00,,,0.17,Rainwise IP-100,2013-07-29 22:11:00,
2013-07-29 18:16:00,73.0,52.0,30.09,West,270,4.0,0.0,48,0.00,,,0.17,Rainwise IP-100,2013-07-29 22:16:00,
2013-07-29 18:21:00,73.0,51.0,30.09,West,270,4.0,8.0,46,0.00,,,0.17,Rainwise IP-100,2013-07-29 22:21:00,
2013-07-29 18:26:00,73.0,52.0,30.09,WSW,247,7.0,9.0,47,0.00,,,0.17,Rainwise IP-100,2013-07-29 22:26:00,
2013-07-29 18:31:00,73.0,53.0,30.09,SW,225,5.0,9.0,50,0.00,,,0.17,Rainwise IP-100,2013-07-29 22:31:00,
2013-07-29 18:36:00,73.0,52.0,30.09,WNW,292,7.0,9.0,47,0.00,,,0.17,Rainwise IP-100,2013-07-29 22:36:00,
2013-07-29 18:41:00,73.0,52.0,30.09,NW,315,6.0,9.0,48,0.00,,,0.17,Rainwise IP-100,2013-07-29 22:41:00,
2013-07-29 18:46:00,73.0,53.0,30.09,WSW,247,4.0,8.0,50,0.00,,,0.17,Rainwise IP-100,2013-07-29 22:46:00,
2013-07-29 18:51:00,72.0,53.0,30.09,NW,315,6.0,8.0,51,0.00,,,0.17,Rainwise IP-100,2013-07-29 22:51:00,
2013-07-29 18:56:00,72.0,53.0,30.09,NNW,337,9.0,0.0,50,0.00,,,0.17,Rainwise IP-100,2013-07-29 22:56:00,
2013-07-29 19:01:00,72.0,53.0,30.10,NW,315,7.0,7.0,50,0.00,,,0.17,Rainwise IP-100,2013-07-29 23:01:00,
2013-07-29 19:06:00,71.0,53.0,30.10,West,270,3.0,5.0,52,0.00,,,0.17,Rainwise IP-100,2013-07-29 23:06:00,
2013-07-29 19:11:00,71.0,53.0,30.11,WNW,292,2.0,6.0,52,0.00,,,0.17,Rainwise IP-100,2013-07-29 23:11:00,
2013-07-29 19:16:00,72.0,52.0,30.11,West,270,7.0,7.0,49,0.00,,,0.17,Rainwise IP-100,2013-07-29 23:16:00,
2013-07-29 19:21:00,72.0,53.0,30.10,NW,315,3.0,7.0,52,0.00,,,0.17,Rainwise IP-100,2013-07-29 23:21:00,
2013-07-29 19:26:00,71.0,53.0,30.10,NW,315,4.0,6.0,52,0.00,,,0.17,Rainwise IP-100,2013-07-29 23:26:00,
2013-07-29 19:31:00,71.0,53.0,30.11,NE,45,6.0,7.0,53,0.00,,,0.17,Rainwise IP-100,2013-07-29 23:31:00,
2013-07-29 19:36:00,70.0,53.0,30.11,NW,315,6.0,6.0,54,0.00,,,0.17,Rainwise IP-100,2013-07-29 23:36:00,
2013-07-29 19:41:00,70.0,54.0,30.12,WNW,292,6.0,0.0,57,0.00,,,0.17,Rainwise IP-100,2013-07-29 23:41:00,
2013-07-29 19:46:00,70.0,54.0,30.12,WSW,247,2.0,9.0,57,0.00,,,0.17,Rainwise IP-100,2013-07-29 23:46:00,
2013-07-29 19:51:00,69.0,54.0,30.12,West,270,2.0,6.0,59,0.00,,,0.17,Rainwise IP-100,2013-07-29 23:51:00,
2013-07-29 19:56:00,69.0,54.0,30.12,WSW,247,4.0,6.0,60,0.00,,,0.17,Rainwise IP-100,2013-07-29 23:56:00,
2013-07-29 20:01:00,68.0,54.0,30.13,West,270,1.0,6.0,61,0.00,,,0.17,Rainwise IP-100,2013-07-30 00:01:00,
2013-07-29 20:06:00,68.0,54.0,30.13,South,180,4.0,4.0,63,0.00,,,0.17,Rainwise IP-100,2013-07-30 00:06:00,
2013-07-29 20:11:00,68.0,55.0,30.14,South,180,0.0,4.0,64,0.00,,,0.17,Rainwise IP-100,2013-07-30 00:11:00,
2013-07-29 20:16:00,68.0,54.0,30.14,South,180,0.0,0.0,63,0.00,,,0.17,Rainwise IP-100,2013-07-30 00:16:00,
2013-07-29 20:21:00,67.0,57.0,30.15,WNW,292,0.0,2.0,72,0.00,,,0.17,Rainwise IP-100,2013-07-30 00:21:00,
2013-07-29 20:26:00,67.0,57.0,30.15,North,360,0.0,5.0,70,0.00,,,0.17,Rainwise IP-100,2013-07-30 00:26:00,
2013-07-29 20:31:00,66.0,56.0,30.15,NW,315,0.0,0.0,71,0.00,,,0.17,Rainwise IP-100,2013-07-30 00:31:00,
2013-07-29 20:36:00,66.0,57.0,30.15,NW,315,0.0,0.0,74,0.00,,,0.17,Rainwise IP-100,2013-07-30 00:36:00,
2013-07-29 20:41:00,66.0,56.0,30.16,NW,315,1.0,6.0,72,0.00,,,0.17,Rainwise IP-100,2013-07-30 00:41:00,
2013-07-29 20:46:00,66.0,57.0,30.16,NW,315,0.0,3.0,74,0.00,,,0.17,Rainwise IP-100,2013-07-30 00:46:00,
2013-07-29 20:51:00,65.0,59.0,30.17,East,90,2.0,2.0,80,0.00,,,0.17,Rainwise IP-100,2013-07-30 00:51:00,
2013-07-29 20:56:00,65.0,59.0,30.17,East,90,0.0,4.0,81,0.00,,,0.17,Rainwise IP-100,2013-07-30 00:56:00,
2013-07-29 21:01:00,65.0,59.0,30.17,SE,135,1.0,3.0,83,0.00,,,0.17,Rainwise IP-100,2013-07-30 01:01:00,
2013-07-29 21:06:00,64.0,58.0,30.17,South,180,3.0,3.0,82,0.00,,,0.17,Rainwise IP-100,2013-07-30 01:06:00,
2013-07-29 21:11:00,64.0,59.0,30.17,South,180,1.0,3.0,83,0.00,,,0.17,Rainwise IP-100,2013-07-30 01:11:00,
2013-07-29 21:16:00,64.0,58.0,30.17,South,180,2.0,3.0,82,0.00,,,0.17,Rainwise IP-100,2013-07-30 01:16:00,
2013-07-29 21:21:00,65.0,59.0,30.18,South,180,3.0,3.0,83,0.00,,,0.17,Rainwise IP-100,2013-07-30 01:21:00,
2013-07-29 21:26:00,65.0,59.0,30.18,South,180,2.0,3.0,82,0.00,,,0.17,Rainwise IP-100,2013-07-30 01:26:00,
2013-07-29 21:31:00,65.0,59.0,30.18,South,180,0.0,9.0,81,0.00,,,0.17,Rainwise IP-100,2013-07-30 01:31:00,
2013-07-29 21:36:00,65.0,60.0,30.18,South,180,2.0,3.0,84,0.00,,,0.17,Rainwise IP-100,2013-07-30 01:36:00,
2013-07-29 21:41:00,65.0,60.0,30.18,South,180,0.0,3.0,86,0.00,,,0.17,Rainwise IP-100,2013-07-30 01:41:00,
2013-07-29 21:46:00,64.0,60.0,30.18,South,180,2.0,2.0,88,0.00,,,0.17,Rainwise IP-100,2013-07-30 01:46:00,
2013-07-29 21:51:00,64.0,60.0,30.19,South,180,2.0,4.0,86,0.00,,,0.17,Rainwise IP-100,2013-07-30 01:51:00,
2013-07-29 21:56:00,64.0,60.0,30.19,South,180,2.0,4.0,87,0.00,,,0.17,Rainwise IP-100,2013-07-30 01:56:00,
2013-07-29 22:01:00,63.0,59.0,30.19,South,180,6.0,6.0,87,0.00,,,0.17,Rainwise IP-100,2013-07-30 02:01:00,
2013-07-29 22:06:00,63.0,59.0,30.19,South,180,2.0,7.0,87,0.00,,,0.17,Rainwise IP-100,2013-07-30 02:06:00,
2013-07-29 22:11:00,64.0,59.0,30.19,SE,135,6.0,8.0,84,0.00,,,0.17,Rainwise IP-100,2013-07-30 02:11:00,
2013-07-29 22:16:00,64.0,60.0,30.19,SE,135,6.0,7.0,86,0.00,,,0.17,Rainwise IP-100,2013-07-30 02:16:00,
2013-07-29 22:21:00,63.0,59.0,30.19,SSE,157,4.0,6.0,86,0.00,,,0.17,Rainwise IP-100,2013-07-30 02:21:00,
2013-07-29 22:26:00,63.0,59.0,30.19,SSE,157,0.0,6.0,87,0.00,,,0.17,Rainwise IP-100,2013-07-30 02:26:00,
2013-07-29 22:31:00,63.0,59.0,30.19,SSE,157,0.0,1.0,87,0.00,,,0.17,Rainwise IP-100,2013-07-30 02:31:00,
2013-07-29 22:36:00,63.0,60.0,30.19,SSE,157,4.0,4.0,89,0.00,,,0.17,Rainwise IP-100,2013-07-30 02:36:00,
2013-07-29 22:41:00,63.0,59.0,30.20,SSE,157,0.0,5.0,87,0.00,,,0.17,Rainwise IP-100,2013-07-30 02:41:00,
2013-07-29 22:46:00,63.0,60.0,30.20,SW,225,0.0,3.0,90,0.00,,,0.17,Rainwise IP-100,2013-07-30 02:46:00,
2013-07-29 22:51:00,63.0,59.0,30.20,SSE,157,0.0,2.0,88,0.00,,,0.17,Rainwise IP-100,2013-07-30 02:51:00,
2013-07-29 22:56:00,63.0,60.0,30.20,SSE,157,2.0,2.0,89,0.00,,,0.17,Rainwise IP-100,2013-07-30 02:56:00,
2013-07-29 23:01:00,63.0,60.0,30.20,NNW,337,2.0,7.0,91,0.00,,,0.17,Rainwise IP-100,2013-07-30 03:01:00,
2013-07-29 23:06:00,62.0,60.0,30.20,SSE,157,0.0,3.0,92,0.00,,,0.17,Rainwise IP-100,2013-07-30 03:06:00,
2013-07-29 23:11:00,62.0,60.0,30.20,SE,135,2.0,4.0,93,0.00,,,0.17,Rainwise IP-100,2013-07-30 03:11:00,
2013-07-29 23:16:00,62.0,60.0,30.20,SE,135,0.0,3.0,93,0.00,,,0.17,Rainwise IP-100,2013-07-30 03:16:00,
2013-07-29 23:21:00,62.0,60.0,30.20,SE,135,0.0,2.0,93,0.00,,,0.17,Rainwise IP-100,2013-07-30 03:21:00,
2013-07-29 23:26:00,62.0,60.0,30.20,SE,135,0.0,0.0,93,0.00,,,0.17,Rainwise IP-100,2013-07-30 03:26:00,
2013-07-29 23:31:00,62.0,60.0,30.20,SE,135,0.0,0.0,95,0.00,,,0.17,Rainwise IP-100,2013-07-30 03:31:00,
2013-07-29 23:36:00,61.0,60.0,30.20,NNW,337,5.0,6.0,96,0.00,,,0.17,Rainwise IP-100,2013-07-30 03:36:00,
2013-07-29 23:41:00,61.0,59.0,30.20,NNW,337,5.0,6.0,94,0.00,,,0.17,Rainwise IP-100,2013-07-30 03:41:00,
2013-07-29 23:46:00,61.0,60.0,30.20,East,90,2.0,7.0,97,0.00,,,0.17,Rainwise IP-100,2013-07-30 03:46:00,
2013-07-29 23:51:00,61.0,60.0,30.21,East,90,0.0,3.0,97,0.00,,,0.17,Rainwise IP-100,2013-07-30 03:51:00,
2013-07-29 23:56:00,60.0,59.0,30.21,SW,225,1.0,3.0,98,0.00,,,0.17,Rainwise IP-100,2013-07-30 03:56:00,